| time (UTC) | temp C | wind direction | speed KPH | gust KPH | rain 1hr cm | rain 24hr cm | rain mn cm | humidity % | barometer mb |
| 20260510023005 | 10 | 44 | 11.3 | 22.5 | 0.00 | 0.00 | 0.00 | 78 | 1017.9 |
| 20260510022504 | 10 | 41 | 9.7 | 20.9 | 0.00 | 0.00 | 0.00 | 78 | 1017.9 |
| 20260510022003 | 10 | 45 | 9.7 | 19.3 | 0.00 | 0.00 | 0.00 | 78 | 1017.9 |
| 20260510021503 | 10 | 49 | 9.7 | 22.5 | 0.00 | 0.00 | 0.00 | 78 | 1017.9 |
| 20260510021005 | 10 | 58 | 12.9 | 25.7 | 0.00 | 0.00 | 0.00 | 77 | 1017.9 |
| 20260510015004 | 10 | 38 | 14.5 | 22.5 | 0.00 | 0.00 | 0.00 | 77 | 1018.0 |
| 20260510014503 | 10 | 44 | 8.0 | 22.5 | 0.00 | 0.00 | 0.00 | 77 | 1017.9 |
| 20260510014003 | 10 | 47 | 11.3 | 22.5 | 0.00 | 0.00 | 0.00 | 77 | 1017.9 |
| 20260510013504 | 10 | 53 | 11.3 | 22.5 | 0.00 | 0.00 | 0.00 | 76 | 1017.9 |
| 20260510012503 | 10 | 49 | 11.3 | 19.3 | 0.00 | 0.00 | 0.00 | 76 | 1018.0 |
| 20260510012004 | 10 | 47 | 4.8 | 16.1 | 0.00 | 0.00 | 0.00 | 75 | 1018.0 |
| 20260510011503 | 11 | 61 | 3.2 | 14.5 | 0.00 | 0.00 | 0.00 | 75 | 1018.0 |
| 20260510011003 | 11 | 65 | 6.4 | 16.1 | 0.00 | 0.00 | 0.00 | 75 | 1018.0 |
| 20260510010504 | 11 | 59 | 9.7 | 19.3 | 0.00 | 0.00 | 0.00 | 76 | 1018.0 |
| 20260510010004 | 11 | 49 | 9.7 | 20.9 | 0.00 | 0.00 | 0.00 | 76 | 1018.0 |
| 20260510005504 | 11 | 52 | 8.0 | 19.3 | 0.00 | 0.00 | 0.00 | 76 | 1017.9 |
| 20260510005004 | 11 | 62 | 8.0 | 22.5 | 0.00 | 0.00 | 0.00 | 76 | 1017.9 |
| 20260510004503 | 11 | 38 | 9.7 | 22.5 | 0.00 | 0.00 | 0.00 | 75 | 1017.9 |
| 20260510004004 | 11 | 52 | 8.0 | 20.9 | 0.00 | 0.00 | 0.00 | 75 | 1017.9 |
| 20260510003503 | 11 | 56 | 11.3 | 25.7 | 0.00 | 0.00 | 0.00 | 75 | 1017.9 |
| 20260510003004 | 11 | 35 | 9.7 | 19.3 | 0.00 | 0.00 | 0.00 | 75 | 1018.0 |
| 20260510002504 | 11 | 38 | 8.0 | 19.3 | 0.00 | 0.00 | 0.00 | 76 | 1017.9 |
| 20260510002003 | 11 | 53 | 9.7 | 19.3 | 0.00 | 0.00 | 0.00 | 76 | 1017.9 |
| 20260510001504 | 11 | 35 | 9.7 | 22.5 | 0.00 | 0.00 | 0.00 | 76 | 1017.8 |
| 20260510000504 | 11 | 36 | 9.7 | 19.3 | 0.00 | 0.00 | 0.00 | 75 | 1017.7 |
| 20260510000004 | 11 | 11 | 11.3 | 24.1 | 0.00 | 0.00 | 0.00 | 75 | 1017.7 |
| 20260509235504 | 12 | 30 | 11.3 | 27.4 | 0.00 | 0.00 | 0.00 | 75 | 1017.7 |
| 20260509235004 | 12 | 24 | 11.3 | 19.3 | 0.00 | 0.00 | 0.00 | 75 | 1017.7 |
| 20260509232504 | 12 | 69 | 9.7 | 19.3 | 0.00 | 0.00 | 0.00 | 74 | 1017.6 |
| 20260509232004 | 12 | 59 | 8.0 | 19.3 | 0.00 | 0.00 | 0.00 | 75 | 1017.6 |
| 20260509231504 | 12 | 31 | 9.7 | 16.1 | 0.00 | 0.00 | 0.00 | 75 | 1017.6 |
| 20260509231004 | 12 | 59 | 4.8 | 19.3 | 0.00 | 0.00 | 0.00 | 75 | 1017.6 |
| 20260509230503 | 12 | 64 | 4.8 | 16.1 | 0.00 | 0.00 | 0.00 | 75 | 1017.5 |
| 20260509230004 | 12 | 37 | 12.9 | 24.1 | 0.00 | 0.00 | 0.00 | 75 | 1017.6 |
| 20260509225004 | 12 | 56 | 8.0 | 19.3 | 0.00 | 0.00 | 0.00 | 75 | 1017.6 |
| 20260509224005 | 12 | 42 | 8.0 | 19.3 | 0.00 | 0.00 | 0.00 | 75 | 1017.5 |
| 20260509223504 | 13 | 18 | 8.0 | 16.1 | 0.00 | 0.00 | 0.00 | 75 | 1017.5 |
| 20260509223005 | 13 | 36 | 8.0 | 19.3 | 0.00 | 0.00 | 0.00 | 75 | 1017.5 |
| 20260509222503 | 13 | 56 | 9.7 | 22.5 | 0.00 | 0.00 | 0.00 | 75 | 1017.5 |
| 20260509221005 | 13 | 57 | 8.0 | 19.3 | 0.00 | 0.00 | 0.00 | 75 | 1017.5 |
| 20260509220004 | 13 | 47 | 9.7 | 20.9 | 0.00 | 0.00 | 0.00 | 75 | 1017.5 |
| 20260509215504 | 13 | 58 | 9.7 | 19.3 | 0.00 | 0.00 | 0.00 | 75 | 1017.4 |
| 20260509215004 | 13 | 66 | 9.7 | 19.3 | 0.00 | 0.00 | 0.00 | 75 | 1017.5 |
| 20260509214005 | 13 | 67 | 11.3 | 20.9 | 0.00 | 0.00 | 0.00 | 75 | 1017.5 |
| 20260509213504 | 13 | 71 | 11.3 | 22.5 | 0.00 | 0.00 | 0.00 | 74 | 1017.4 |
| 20260509213004 | 13 | 58 | 8.0 | 19.3 | 0.00 | 0.00 | 0.00 | 74 | 1017.4 |
| 20260509212503 | 13 | 65 | 9.7 | 19.3 | 0.00 | 0.00 | 0.00 | 74 | 1017.4 |
| 20260509212004 | 13 | 64 | 12.9 | 22.5 | 0.00 | 0.00 | 0.00 | 74 | 1017.3 |
| 20260509211503 | 13 | 61 | 9.7 | 20.9 | 0.00 | 0.00 | 0.00 | 74 | 1017.2 |
| 20260509210504 | 14 | 44 | 14.5 | 24.1 | 0.00 | 0.00 | 0.00 | 73 | 1017.2 |
| 20260509205504 | 14 | 35 | 11.3 | 20.9 | 0.00 | 0.00 | 0.00 | 72 | 1017.1 |
| 20260509205005 | 14 | 43 | 14.5 | 24.1 | 0.00 | 0.00 | 0.00 | 72 | 1017.1 |
| 20260509204503 | 14 | 30 | 16.1 | 25.7 | 0.00 | 0.00 | 0.00 | 72 | 1017.1 |
| 20260509204004 | 14 | 34 | 4.8 | 19.3 | 0.00 | 0.00 | 0.00 | 71 | 1017.1 |
| 20260509203505 | 14 | 43 | 4.8 | 19.3 | 0.00 | 0.00 | 0.00 | 71 | 1017.1 |
| 20260509203004 | 14 | 35 | 9.7 | 19.3 | 0.00 | 0.00 | 0.00 | 71 | 1017.0 |
| 20260509202503 | 14 | 62 | 11.3 | 19.3 | 0.00 | 0.00 | 0.00 | 70 | 1016.9 |
| 20260509201503 | 14 | 16 | 6.4 | 19.3 | 0.00 | 0.00 | 0.00 | 70 | 1017.1 |
| 20260509201003 | 15 | 50 | 8.0 | 16.1 | 0.00 | 0.00 | 0.00 | 70 | 1016.9 |
| 20260509200004 | 15 | 38 | 8.0 | 19.3 | 0.00 | 0.00 | 0.00 | 69 | 1016.8 |
| 20260509195504 | 15 | 24 | 8.0 | 25.7 | 0.00 | 0.00 | 0.00 | 69 | 1016.8 |
| 20260509195003 | 15 | 13 | 9.7 | 22.5 | 0.00 | 0.00 | 0.00 | 69 | 1016.8 |
| 20260509194504 | 15 | 14 | 9.7 | 22.5 | 0.00 | 0.00 | 0.00 | 68 | 1016.7 |
| 20260509193504 | 15 | 17 | 11.3 | 22.5 | 0.00 | 0.00 | 0.00 | 68 | 1016.6 |
| 20260509193004 | 16 | 28 | 11.3 | 24.1 | 0.00 | 0.00 | 0.00 | 67 | 1016.5 |
| 20260509192503 | 16 | 5 | 11.3 | 25.7 | 0.00 | 0.00 | 0.00 | 66 | 1016.6 |
| 20260509192003 | 16 | 17 | 9.7 | 22.5 | 0.00 | 0.00 | 0.00 | 66 | 1016.5 |
| 20260509191504 | 16 | 7 | 11.3 | 24.1 | 0.00 | 0.00 | 0.00 | 64 | 1016.5 |
| 20260509190003 | 17 | 35 | 11.3 | 22.5 | 0.00 | 0.00 | 0.00 | 61 | 1016.3 |
| 20260509185504 | 17 | 35 | 8.0 | 22.5 | 0.00 | 0.00 | 0.00 | 58 | 1016.3 |
| 20260509185003 | 18 | 22 | 8.0 | 19.3 | 0.00 | 0.00 | 0.00 | 55 | 1016.2 |
| 20260509184503 | 18 | 40 | 6.4 | 14.5 | 0.00 | 0.00 | 0.00 | 50 | 1016.1 |
| 20260509184004 | 18 | 39 | 6.4 | 16.1 | 0.00 | 0.00 | 0.00 | 49 | 1016.1 |
| 20260509183504 | 18 | 37 | 11.3 | 19.3 | 0.00 | 0.00 | 0.00 | 49 | 1016.0 |
| 20260509183004 | 18 | 34 | 9.7 | 20.9 | 0.00 | 0.00 | 0.00 | 48 | 1015.9 |
| 20260509182504 | 18 | 62 | 8.0 | 19.3 | 0.00 | 0.00 | 0.00 | 48 | 1015.9 |
| 20260509181504 | 19 | 62 | 9.7 | 22.5 | 0.00 | 0.00 | 0.00 | 47 | 1015.8 |
| 20260509181004 | 19 | 37 | 9.7 | 19.3 | 0.00 | 0.00 | 0.00 | 47 | 1015.8 |
| 20260509180504 | 20 | 66 | 8.0 | 16.1 | 0.00 | 0.00 | 0.00 | 46 | 1015.8 |
| 20260509180004 | 20 | 41 | 9.7 | 16.1 | 0.00 | 0.00 | 0.00 | 47 | 1015.8 |
| 20260509175504 | 20 | 43 | 8.0 | 19.3 | 0.00 | 0.00 | 0.00 | 46 | 1015.8 |
| 20260509174503 | 20 | 45 | 4.8 | 16.1 | 0.00 | 0.00 | 0.00 | 46 | 1015.8 |
| 20260509174004 | 20 | 35 | 6.4 | 19.3 | 0.00 | 0.00 | 0.00 | 46 | 1015.8 |
| 20260509173503 | 20 | 60 | 9.7 | 19.3 | 0.00 | 0.00 | 0.00 | 46 | 1015.8 |
| 20260509173004 | 20 | 93 | 9.7 | 19.3 | 0.00 | 0.00 | 0.00 | 46 | 1015.8 |
| 20260509172004 | 20 | 62 | 8.0 | 19.3 | 0.00 | 0.00 | 0.00 | 48 | 1015.8 |
| 20260509171004 | 20 | 91 | 9.7 | 19.3 | 0.00 | 0.00 | 0.00 | 48 | 1015.7 |
| 20260509170504 | 20 | 45 | 8.0 | 16.1 | 0.00 | 0.00 | 0.00 | 49 | 1015.8 |
| 20260509170003 | 20 | 89 | 4.8 | 14.5 | 0.00 | 0.00 | 0.00 | 49 | 1015.9 |
| 20260509165503 | 20 | 63 | 8.0 | 16.1 | 0.00 | 0.00 | 0.00 | 50 | 1015.9 |
| 20260509165003 | 20 | 35 | 4.8 | 14.5 | 0.00 | 0.00 | 0.00 | 50 | 1015.9 |
| 20260509164504 | 20 | 60 | 4.8 | 16.1 | 0.00 | 0.00 | 0.00 | 51 | 1015.9 |
| 20260509164004 | 20 | 18 | 6.4 | 19.3 | 0.00 | 0.00 | 0.00 | 51 | 1016.0 |
| 20260509163503 | 20 | 50 | 8.0 | 20.9 | 0.00 | 0.00 | 0.00 | 50 | 1015.9 |
| 20260509163004 | 20 | 103 | 4.8 | 9.7 | 0.00 | 0.00 | 0.00 | 51 | 1016.0 |
| 20260509162503 | 20 | 88 | 8.0 | 16.1 | 0.00 | 0.00 | 0.00 | 51 | 1015.9 |
| 20260509162004 | 20 | 101 | 9.7 | 14.5 | 0.00 | 0.00 | 0.00 | 52 | 1015.9 |
| 20260509161503 | 19 | 72 | 6.4 | 12.9 | 0.00 | 0.00 | 0.00 | 53 | 1015.9 |
| 20260509161003 | 19 | 64 | 4.8 | 16.1 | 0.00 | 0.00 | 0.00 | 53 | 1015.9 |
| 20260509160003 | 19 | 93 | 11.3 | 16.1 | 0.00 | 0.00 | 0.00 | 51 | 1016.0 |
| 20260509155503 | 19 | 106 | 9.7 | 19.3 | 0.00 | 0.00 | 0.00 | 51 | 1016.0 |
| 20260509155003 | 20 | 95 | 8.0 | 19.3 | 0.00 | 0.00 | 0.00 | 52 | 1016.1 |
| 20260509154503 | 20 | 98 | 9.7 | 16.1 | 0.00 | 0.00 | 0.00 | 54 | 1016.0 |
| 20260509154003 | 20 | 114 | 4.8 | 12.9 | 0.00 | 0.00 | 0.00 | 53 | 1016.0 |
| 20260509153504 | 20 | 101 | 8.0 | 14.5 | 0.00 | 0.00 | 0.00 | 51 | 1016.0 |
| 20260509152504 | 19 | 94 | 8.0 | 16.1 | 0.00 | 0.00 | 0.00 | 52 | 1016.0 |
| 20260509151504 | 20 | 92 | 8.0 | 19.3 | 0.00 | 0.00 | 0.00 | 54 | 1016.1 |
| 20260509151003 | 20 | 110 | 8.0 | 12.9 | 0.00 | 0.00 | 0.00 | 53 | 1016.0 |
| 20260509150503 | 20 | 99 | 9.7 | 16.1 | 0.00 | 0.00 | 0.00 | 52 | 1016.0 |
| 20260509150004 | 20 | 96 | 9.7 | 20.9 | 0.00 | 0.00 | 0.00 | 53 | 1016.1 |
| 20260509145503 | 20 | 95 | 9.7 | 19.3 | 0.00 | 0.00 | 0.00 | 54 | 1016.0 |
| 20260509145003 | 20 | 58 | 8.0 | 12.9 | 0.00 | 0.00 | 0.00 | 53 | 1016.1 |
| 20260509144503 | 20 | 96 | 8.0 | 19.3 | 0.00 | 0.00 | 0.00 | 53 | 1016.1 |
| 20260509144004 | 20 | 92 | 6.4 | 14.5 | 0.00 | 0.00 | 0.00 | 54 | 1016.1 |
| 20260509143004 | 20 | 89 | 9.7 | 19.3 | 0.00 | 0.00 | 0.00 | 53 | 1016.1 |
| 20260509142503 | 20 | 86 | 6.4 | 16.1 | 0.00 | 0.00 | 0.00 | 55 | 1016.1 |
| 20260509142004 | 20 | 75 | 4.8 | 11.3 | 0.00 | 0.00 | 0.00 | 54 | 1016.1 |
| 20260509141003 | 20 | 107 | 8.0 | 19.3 | 0.00 | 0.00 | 0.00 | 54 | 1016.2 |
| 20260509140503 | 20 | 92 | 8.0 | 19.3 | 0.00 | 0.00 | 0.00 | 52 | 1016.2 |
| 20260509140004 | 20 | 100 | 11.3 | 20.9 | 0.00 | 0.00 | 0.00 | 51 | 1016.2 |
| 20260509135504 | 20 | 108 | 9.7 | 19.3 | 0.00 | 0.00 | 0.00 | 54 | 1016.2 |
| 20260509135004 | 20 | 63 | 8.0 | 14.5 | 0.00 | 0.00 | 0.00 | 54 | 1016.2 |
| 20260509134504 | 20 | 86 | 14.5 | 22.5 | 0.00 | 0.00 | 0.00 | 51 | 1016.2 |
| 20260509134004 | 20 | 108 | 8.0 | 19.3 | 0.00 | 0.00 | 0.00 | 51 | 1016.2 |
| 20260509133503 | 20 | 91 | 8.0 | 16.1 | 0.00 | 0.00 | 0.00 | 53 | 1016.1 |
| 20260509133004 | 20 | 91 | 8.0 | 12.9 | 0.00 | 0.00 | 0.00 | 53 | 1016.2 |
| 20260509132504 | 20 | 100 | 8.0 | 16.1 | 0.00 | 0.00 | 0.00 | 53 | 1016.2 |
| 20260509132004 | 20 | 94 | 9.7 | 16.1 | 0.00 | 0.00 | 0.00 | 52 | 1016.2 |
| 20260509131503 | 20 | 118 | 9.7 | 16.1 | 0.00 | 0.00 | 0.00 | 51 | 1016.3 |
| 20260509131003 | 20 | 126 | 11.3 | 19.3 | 0.00 | 0.00 | 0.00 | 50 | 1016.3 |
| 20260509130504 | 20 | 92 | 11.3 | 19.3 | 0.00 | 0.00 | 0.00 | 52 | 1016.3 |
| 20260509125503 | 20 | 88 | 9.7 | 19.3 | 0.00 | 0.00 | 0.00 | 52 | 1016.4 |
| 20260509125003 | 20 | 110 | 9.7 | 14.5 | 0.00 | 0.00 | 0.00 | 51 | 1016.3 |
| 20260509124503 | 20 | 52 | 6.4 | 16.1 | 0.00 | 0.00 | 0.00 | 54 | 1016.4 |
| 20260509124004 | 20 | 71 | 8.0 | 19.3 | 0.00 | 0.00 | 0.00 | 50 | 1016.4 |
| 20260509123503 | 21 | 75 | 8.0 | 16.1 | 0.00 | 0.00 | 0.00 | 50 | 1016.5 |
| 20260509122505 | 21 | 109 | 11.3 | 19.3 | 0.00 | 0.00 | 0.00 | 52 | 1016.6 |
| 20260509122004 | 21 | 89 | 8.0 | 16.1 | 0.00 | 0.00 | 0.00 | 54 | 1016.7 |
| 20260509121504 | 21 | 116 | 9.7 | 24.1 | 0.00 | 0.00 | 0.00 | 50 | 1016.6 |
| 20260509121004 | 21 | 84 | 8.0 | 16.1 | 0.00 | 0.00 | 0.00 | 54 | 1016.7 |
| 20260509120503 | 20 | 114 | 9.7 | 20.9 | 0.00 | 0.00 | 0.00 | 53 | 1016.7 |
| 20260509115503 | 20 | 72 | 8.0 | 20.9 | 0.00 | 0.00 | 0.00 | 55 | 1016.8 |
| 20260509115003 | 20 | 98 | 9.7 | 19.3 | 0.00 | 0.00 | 0.00 | 54 | 1016.9 |
| 20260509114504 | 20 | 92 | 8.0 | 19.3 | 0.00 | 0.00 | 0.00 | 56 | 1016.9 |
| 20260509114003 | 20 | 88 | 9.7 | 19.3 | 0.00 | 0.00 | 0.00 | 52 | 1016.9 |
| 20260509113504 | 20 | 85 | 6.4 | 14.5 | 0.00 | 0.00 | 0.00 | 58 | 1017.0 |
| 20260509113003 | 20 | 55 | 8.0 | 19.3 | 0.00 | 0.00 | 0.00 | 57 | 1017.1 |
| 20260509112504 | 20 | 57 | 9.7 | 16.1 | 0.00 | 0.00 | 0.00 | 56 | 1017.1 |
| 20260509112003 | 19 | 103 | 8.0 | 16.1 | 0.00 | 0.00 | 0.00 | 54 | 1017.2 |
| 20260509111003 | 19 | 82 | 11.3 | 19.3 | 0.00 | 0.00 | 0.00 | 54 | 1017.3 |
| 20260509110503 | 19 | 92 | 8.0 | 20.9 | 0.00 | 0.00 | 0.00 | 55 | 1017.3 |
| 20260509110004 | 19 | 78 | 9.7 | 19.3 | 0.00 | 0.00 | 0.00 | 54 | 1017.3 |
| 20260509105504 | 18 | 104 | 6.4 | 16.1 | 0.00 | 0.00 | 0.00 | 57 | 1017.3 |
| 20260509104504 | 18 | 76 | 9.7 | 19.3 | 0.00 | 0.00 | 0.00 | 54 | 1017.4 |
| 20260509104003 | 18 | 119 | 11.3 | 19.3 | 0.00 | 0.00 | 0.00 | 56 | 1017.4 |
| 20260509103503 | 19 | 96 | 11.3 | 19.3 | 0.00 | 0.00 | 0.00 | 55 | 1017.4 |
| 20260509102504 | 18 | 104 | 8.0 | 16.1 | 0.00 | 0.00 | 0.00 | 57 | 1017.5 |
| 20260509102004 | 18 | 65 | 12.9 | 19.3 | 0.00 | 0.00 | 0.00 | 55 | 1017.5 |
| 20260509101004 | 18 | 81 | 8.0 | 19.3 | 0.00 | 0.00 | 0.00 | 58 | 1017.5 |
| 20260509100505 | 18 | 107 | 6.4 | 19.3 | 0.00 | 0.00 | 0.00 | 59 | 1017.5 |
| 20260509100005 | 18 | 109 | 11.3 | 19.3 | 0.00 | 0.00 | 0.00 | 58 | 1017.5 |
| 20260509095503 | 17 | 89 | 11.3 | 14.5 | 0.00 | 0.00 | 0.00 | 58 | 1017.6 |
| 20260509095004 | 17 | 113 | 9.7 | 16.1 | 0.00 | 0.00 | 0.00 | 58 | 1017.6 |
| 20260509094504 | 17 | 109 | 12.9 | 19.3 | 0.00 | 0.00 | 0.00 | 56 | 1017.6 |
| 20260509093503 | 17 | 107 | 9.7 | 19.3 | 0.00 | 0.00 | 0.00 | 57 | 1017.6 |
| 20260509093003 | 17 | 96 | 6.4 | 14.5 | 0.00 | 0.00 | 0.00 | 60 | 1017.6 |
| 20260509092503 | 17 | 108 | 8.0 | 16.1 | 0.00 | 0.00 | 0.00 | 58 | 1017.6 |
| 20260509092004 | 17 | 90 | 11.3 | 19.3 | 0.00 | 0.00 | 0.00 | 58 | 1017.6 |
| 20260509091504 | 17 | 78 | 9.7 | 16.1 | 0.00 | 0.00 | 0.00 | 57 | 1017.5 |
| 20260509091004 | 17 | 95 | 9.7 | 16.1 | 0.00 | 0.00 | 0.00 | 59 | 1017.5 |
| 20260509090503 | 17 | 92 | 9.7 | 14.5 | 0.00 | 0.00 | 0.00 | 58 | 1017.6 |
| 20260509090004 | 17 | 98 | 4.8 | 12.9 | 0.00 | 0.00 | 0.00 | 61 | 1017.5 |
| 20260509085504 | 17 | 127 | 6.4 | 12.9 | 0.00 | 0.00 | 0.00 | 63 | 1017.6 |
| 20260509085004 | 17 | 123 | 9.7 | 16.1 | 0.00 | 0.00 | 0.00 | 60 | 1017.5 |
| 20260509084005 | 17 | 102 | 9.7 | 14.5 | 0.00 | 0.00 | 0.00 | 62 | 1017.5 |
| 20260509083004 | 17 | 90 | 9.7 | 16.1 | 0.00 | 0.00 | 0.00 | 61 | 1017.5 |
| 20260509082503 | 17 | 77 | 4.8 | 14.5 | 0.00 | 0.00 | 0.00 | 65 | 1017.5 |
| 20260509082004 | 17 | 56 | 8.0 | 14.5 | 0.00 | 0.00 | 0.00 | 64 | 1017.5 |
| 20260509081504 | 16 | 64 | 4.8 | 11.3 | 0.00 | 0.00 | 0.00 | 63 | 1017.6 |
| 20260509081004 | 16 | 80 | 4.8 | 12.9 | 0.00 | 0.00 | 0.00 | 66 | 1017.7 |
| 20260509080004 | 16 | 74 | 4.8 | 16.1 | 0.00 | 0.00 | 0.00 | 66 | 1017.7 |
| 20260509075505 | 16 | 92 | 8.0 | 14.5 | 0.00 | 0.00 | 0.00 | 66 | 1017.7 |
| 20260509075004 | 16 | 93 | 4.8 | 12.9 | 0.00 | 0.00 | 0.00 | 67 | 1017.7 |
| 20260509074505 | 15 | 97 | 4.8 | 11.3 | 0.00 | 0.00 | 0.00 | 67 | 1017.7 |
| 20260509074003 | 15 | 121 | 3.2 | 4.8 | 0.00 | 0.00 | 0.00 | 71 | 1017.7 |
| 20260509073503 | 15 | 121 | 1.6 | 4.8 | 0.00 | 0.00 | 0.00 | 72 | 1017.7 |
| 20260509073006 | 14 | 121 | 1.6 | 4.8 | 0.00 | 0.00 | 0.00 | 72 | 1017.7 |
| 20260509072004 | 13 | 123 | 1.6 | 4.8 | 0.00 | 0.00 | 0.00 | 78 | 1017.7 |
| 20260509071004 | 12 | 109 | 3.2 | 4.8 | 0.00 | 0.00 | 0.00 | 82 | 1017.6 |
| 20260509070503 | 12 | 109 | 1.6 | 4.8 | 0.00 | 0.00 | 0.00 | 85 | 1017.7 |
| 20260509065503 | 10 | 109 | 3.2 | 4.8 | 0.00 | 0.00 | 0.00 | 89 | 1017.6 |
| 20260509065003 | 10 | 109 | 1.6 | 3.2 | 0.00 | 0.00 | 0.00 | 89 | 1017.6 |
| 20260509064504 | 10 | 109 | 0.0 | 3.2 | 0.00 | 0.00 | 0.00 | 90 | 1017.6 |
| 20260509064004 | 10 | 109 | 1.6 | 4.8 | 0.00 | 0.00 | 0.00 | 91 | 1017.7 |
| 20260509063504 | 9 | 109 | 3.2 | 4.8 | 0.00 | 0.00 | 0.00 | 91 | 1017.7 |
| 20260509063004 | 9 | 109 | 3.2 | 4.8 | 0.00 | 0.00 | 0.00 | 91 | 1017.6 |
| 20260509062504 | 8 | 110 | 1.6 | 4.8 | 0.00 | 0.00 | 0.00 | 92 | 1017.6 |
| 20260509062003 | 8 | 110 | 1.6 | 4.8 | 0.00 | 0.00 | 0.00 | 92 | 1017.5 |
| 20260509061505 | 8 | 110 | 1.6 | 3.2 | 0.00 | 0.00 | 0.00 | 93 | 1017.5 |
| 20260509061004 | 8 | 111 | 1.6 | 3.2 | 0.00 | 0.00 | 0.00 | 93 | 1017.5 |
| 20260509060504 | 7 | 111 | 1.6 | 4.8 | 0.00 | 0.00 | 0.00 | 93 | 1017.5 |
| 20260509060004 | 7 | 111 | 0.0 | 0.0 | 0.00 | 0.00 | 0.00 | 92 | 1017.5 |
| 20260509055504 | 7 | 111 | 0.0 | 0.0 | 0.00 | 0.00 | 0.00 | 92 | 1017.4 |
| 20260509054004 | 6 | 111 | 0.0 | 1.6 | 0.00 | 0.00 | 0.00 | 92 | 1017.4 |
| 20260509053505 | 6 | 108 | 0.0 | 1.6 | 0.00 | 0.00 | 0.00 | 92 | 1017.4 |
| 20260509053003 | 6 | 188 | 1.6 | 1.6 | 0.00 | 0.00 | 0.00 | 92 | 1017.4 |
| 20260509052503 | 6 | 188 | 0.0 | 3.2 | 0.00 | 0.00 | 0.00 | 91 | 1017.3 |
| 20260509052004 | 6 | 188 | 0.0 | 3.2 | 0.00 | 0.00 | 0.00 | 91 | 1017.3 |
| 20260509051503 | 6 | 188 | 1.6 | 3.2 | 0.00 | 0.00 | 0.00 | 91 | 1017.4 |
| 20260509051004 | 6 | 188 | 0.0 | 3.2 | 0.00 | 0.00 | 0.00 | 91 | 1017.3 |
| 20260509050503 | 5 | 188 | 0.0 | 0.0 | 0.00 | 0.00 | 0.00 | 90 | 1017.3 |
| 20260509050004 | 5 | 185 | 0.0 | 0.0 | 0.00 | 0.00 | 0.00 | 90 | 1017.3 |
| 20260509045503 | 5 | 185 | 0.0 | 0.0 | 0.00 | 0.00 | 0.00 | 90 | 1017.3 |
| 20260509045004 | 5 | 185 | 0.0 | 3.2 | 0.00 | 0.00 | 0.00 | 90 | 1017.4 |
| 20260509044504 | 5 | 161 | 1.6 | 3.2 | 0.00 | 0.00 | 0.00 | 90 | 1017.4 |
| 20260509044003 | 5 | 132 | 0.0 | 1.6 | 0.00 | 0.00 | 0.00 | 90 | 1017.4 |
| 20260509043003 | 6 | 132 | 0.0 | 1.6 | 0.00 | 0.00 | 0.00 | 90 | 1017.4 |
| 20260509042505 | 6 | 127 | 0.0 | 3.2 | 0.00 | 0.00 | 0.00 | 89 | 1017.4 |
| 20260509042004 | 6 | 122 | 0.0 | 1.6 | 0.00 | 0.00 | 0.00 | 90 | 1017.3 |
| 20260509041504 | 6 | 122 | 0.0 | 1.6 | 0.00 | 0.00 | 0.00 | 89 | 1017.3 |
| 20260509041004 | 6 | 122 | 0.0 | 3.2 | 0.00 | 0.00 | 0.00 | 89 | 1017.3 |
| 20260509040504 | 6 | 122 | 0.0 | 3.2 | 0.00 | 0.00 | 0.00 | 89 | 1017.2 |
| 20260509040004 | 6 | 122 | 0.0 | 3.2 | 0.00 | 0.00 | 0.00 | 90 | 1017.2 |
| 20260509035004 | 6 | 122 | 3.2 | 4.8 | 0.00 | 0.00 | 0.00 | 90 | 1017.2 |
| 20260509034504 | 6 | 122 | 0.0 | 0.0 | 0.00 | 0.00 | 0.00 | 89 | 1017.1 |
| 20260509034004 | 6 | 122 | 0.0 | 0.0 | 0.00 | 0.00 | 0.00 | 89 | 1017.1 |
| 20260509033504 | 6 | 122 | 0.0 | 0.0 | 0.00 | 0.00 | 0.00 | 89 | 1017.2 |
| 20260509032503 | 6 | 122 | 0.0 | 1.6 | 0.00 | 0.00 | 0.00 | 89 | 1017.2 |
| 20260509032004 | 6 | 122 | 0.0 | 0.0 | 0.00 | 0.00 | 0.00 | 89 | 1017.1 |
| 20260509030003 | 7 | 122 | 0.0 | 1.6 | 0.00 | 0.00 | 0.00 | 90 | 1017.1 |
| 20260509025004 | 7 | 122 | 1.6 | 3.2 | 0.00 | 0.00 | 0.00 | 90 | 1017.2 |
| 20260509024504 | 7 | 122 | 3.2 | 4.8 | 0.00 | 0.00 | 0.00 | 90 | 1017.2 |
| 20260509024004 | 7 | 122 | 3.2 | 4.8 | 0.00 | 0.00 | 0.00 | 90 | 1017.2 |
| 20260509023505 | 7 | 205 | 0.0 | 3.2 | 0.00 | 0.00 | 0.00 | 89 | 1017.1 |